Find Starlink 30532

NORAD ID: 58070 Int'l Des: 2023-158 Owner: SPXS Country: US Constellation: starlink operational
LEOCIRCULAR

Current View

Loading 3D Globe...

About Starlink 30532

Starlink 30532 (NORAD 58070) is a starlink constellation satellite (v2 mini) launched Oct 13, 2023 by SPXS of US. It operates in LEO, CIRCULAR orbit with a mass of 730.00 kg.

About Starlink 30532

Description loading...

Upcoming Passes

Passes for default location (London). Set your location on the main map for personalized predictions.

Altitude History

Loading altitude history...

Two-Line Element Set

1 58070U 23158V 26177.91055325 -.00002590 00000-0 -84641-4 0 9997
2 58070 43.0028 130.2474 0001294 286.3892 73.6818 15.27571162150279
Epoch: Jun 26, 2026 • Age: 22 hours

Current Status

Altitude 487.1 km
Velocity 7.63 km/s
Sub-Earth Point 43.15°N, 5.46°W
Launch Date Oct 13, 2023
Age 2.7 years
Type internet

Technical Details

Classification Payload
Mass 730.00 kg
Dry Mass 700.00 kg
Total Mass 730.00 kg
Length 0.30 m
Diameter 4.10 m
Span 29.00 m
Shape Box + pan
Manufacturer SPXS
Bus Type Starlink V2M
Phase Status In Orbit
Owner/State SPXS/US

Most Searched